Retour au catalogue

ATLAS 5 CENTAUR DEB

LostHEO
NORAD 49378·DEBRIS·🇺🇸 United States

Lancé Oct 17, 2018 depuis Cape Canaveral Space Force Station

Loading…

Prochains Passages (prochaines 24 heures)

TLE

PériméSource: Space-Track

Époque: May 13, 2024, 09:10 UTC

1 49378U 18079GF  24134.38207642 -.00000098  00000-0  00000+0 0  9999
2 49378  10.1411 141.9567 4615418 107.8801 306.5325  1.64296039 16032

Suivez ATLAS 5 CENTAUR DEB en temps réel avec AllMySat

Download on the App Store